TimeCST,TemperatureF,Dew PointF,Humidity,Sea Level PressureIn,VisibilityMPH,Wind Direction,Wind SpeedMPH,Gust SpeedMPH,PrecipitationIn,Events,Conditions,WindDirDegrees,DateUTC
12:15 AM,30.7,26.8,85,29.89,10.0,WNW,3.5,-,N/A,,Scattered Clouds,300,2012-12-07 06:15:00
12:35 AM,30.2,26.6,86,29.90,10.0,West,3.5,-,N/A,,Clear,280,2012-12-07 06:35:00
12:55 AM,30.2,26.6,86,29.90,10.0,WNW,3.5,-,N/A,,Clear,300,2012-12-07 06:55:00
1:15 AM,30.2,26.4,86,29.91,10.0,Calm,Calm,-,N/A,,Scattered Clouds,0,2012-12-07 07:15:00
1:35 AM,30.2,26.4,86,29.91,10.0,WNW,3.5,-,N/A,,Scattered Clouds,290,2012-12-07 07:35:00
2:15 AM,30.2,25.7,83,29.93,10.0,WNW,3.5,-,N/A,,Clear,300,2012-12-07 08:15:00
2:35 AM,30.2,25.5,83,29.94,10.0,WNW,3.5,-,N/A,,Clear,300,2012-12-07 08:35:00
2:55 AM,30.0,25.5,83,29.94,10.0,WNW,5.8,-,N/A,,Scattered Clouds,300,2012-12-07 08:55:00
3:15 AM,30.0,24.8,81,29.94,10.0,WNW,3.5,-,N/A,,Clear,290,2012-12-07 09:15:00
3:35 AM,29.8,24.6,81,29.95,10.0,West,4.6,-,N/A,,Scattered Clouds,280,2012-12-07 09:35:00
3:55 AM,29.3,24.6,83,29.95,10.0,West,4.6,-,N/A,,Scattered Clouds,260,2012-12-07 09:55:00
4:15 AM,29.3,24.3,81,29.95,10.0,WNW,4.6,-,N/A,,Clear,300,2012-12-07 10:15:00
4:35 AM,28.9,24.1,82,29.96,10.0,NW,4.6,-,N/A,,Clear,310,2012-12-07 10:35:00
4:55 AM,28.9,23.9,81,29.96,10.0,WNW,3.5,-,N/A,,Clear,300,2012-12-07 10:55:00
5:15 AM,28.6,23.7,82,29.96,10.0,NW,6.9,-,N/A,,Clear,310,2012-12-07 11:15:00
5:35 AM,28.4,23.5,82,29.96,10.0,NW,3.5,-,N/A,,Clear,310,2012-12-07 11:35:00
5:55 AM,28.4,23.4,81,29.96,10.0,NW,4.6,-,N/A,,Clear,320,2012-12-07 11:55:00
6:15 AM,28.0,22.8,81,29.96,10.0,West,3.5,-,N/A,,Clear,280,2012-12-07 12:15:00
6:35 AM,27.5,23.0,83,29.97,10.0,WNW,4.6,-,N/A,,Clear,300,2012-12-07 12:35:00
6:55 AM,26.8,23.0,86,29.97,10.0,Calm,Calm,-,N/A,,Clear,0,2012-12-07 12:55:00
7:15 AM,26.2,23.0,88,29.97,10.0,Calm,Calm,-,N/A,,Clear,0,2012-12-07 13:15:00
7:35 AM,25.7,22.6,88,29.97,10.0,WNW,3.5,-,N/A,,Clear,300,2012-12-07 13:35:00
7:55 AM,25.5,21.9,86,29.98,10.0,WNW,4.6,-,N/A,,Clear,290,2012-12-07 13:55:00
8:15 AM,25.5,21.2,84,29.98,10.0,West,5.8,-,N/A,,Clear,280,2012-12-07 14:15:00
8:35 AM,25.7,21.4,84,29.98,10.0,NW,5.8,-,N/A,,Clear,310,2012-12-07 14:35:00
8:55 AM,26.8,21.9,82,29.98,10.0,NNW,4.6,-,N/A,,Clear,330,2012-12-07 14:55:00
9:15 AM,26.6,21.2,80,29.98,10.0,NW,5.8,-,N/A,,Clear,320,2012-12-07 15:15:00
9:35 AM,26.6,21.2,80,29.98,10.0,NNW,6.9,-,N/A,,Clear,330,2012-12-07 15:35:00
9:55 AM,27.5,21.6,78,30.00,10.0,West,3.5,-,N/A,,Clear,280,2012-12-07 15:55:00
10:15 AM,28.4,21.4,75,30.00,10.0,WNW,3.5,-,N/A,,Clear,290,2012-12-07 16:15:00
10:35 AM,29.7,21.7,72,29.99,10.0,Calm,Calm,-,N/A,,Clear,0,2012-12-07 16:35:00
10:55 AM,31.1,21.2,67,29.98,10.0,Calm,Calm,-,N/A,,Clear,0,2012-12-07 16:55:00
11:15 AM,32.0,21.2,64,29.97,10.0,NNW,8.1,-,N/A,,Clear,330,2012-12-07 17:15:00
11:35 AM,31.3,21.0,66,29.97,10.0,NNW,3.5,-,N/A,,Clear,330,2012-12-07 17:35:00
11:55 AM,31.8,21.2,65,29.96,10.0,NW,3.5,-,N/A,,Clear,320,2012-12-07 17:55:00
12:15 PM,32.2,21.2,64,29.96,10.0,WNW,3.5,-,N/A,,Clear,300,2012-12-07 18:15:00
12:35 PM,32.9,21.0,62,29.95,10.0,North,5.8,-,N/A,,Clear,10,2012-12-07 18:35:00
12:55 PM,33.3,20.3,59,29.95,10.0,NNE,4.6,-,N/A,,Mostly Cloudy,30,2012-12-07 18:55:00
1:15 PM,33.1,20.3,59,29.95,10.0,Calm,Calm,-,N/A,,Scattered Clouds,0,2012-12-07 19:15:00
1:35 PM,34.0,20.8,59,29.95,10.0,NNW,3.5,-,N/A,,Scattered Clouds,330,2012-12-07 19:35:00
1:55 PM,33.6,20.3,58,29.94,10.0,Calm,Calm,-,N/A,,Mostly Cloudy,0,2012-12-07 19:55:00
2:35 PM,33.8,20.1,57,29.94,10.0,Calm,Calm,-,N/A,,Overcast,0,2012-12-07 20:35:00
2:55 PM,32.9,21.9,64,29.95,10.0,West,6.9,-,N/A,,Overcast,270,2012-12-07 20:55:00
3:15 PM,32.5,21.6,64,29.96,10.0,WNW,4.6,-,N/A,,Overcast,300,2012-12-07 21:15:00
3:35 PM,32.0,21.0,64,29.96,10.0,NW,5.8,-,N/A,,Overcast,320,2012-12-07 21:35:00
4:15 PM,31.6,19.9,62,29.97,10.0,NW,5.8,-,N/A,,Overcast,320,2012-12-07 22:15:00
4:55 PM,30.9,20.3,65,29.97,10.0,NNW,4.6,-,N/A,,Overcast,340,2012-12-07 22:55:00
5:15 PM,30.4,20.3,66,29.97,10.0,North,4.6,-,N/A,,Overcast,350,2012-12-07 23:15:00
6:15 PM,29.7,21.0,70,29.97,10.0,North,8.1,-,N/A,,Mostly Cloudy,360,2012-12-08 00:15:00
6:35 PM,29.5,21.6,72,29.97,10.0,North,5.8,-,N/A,,Overcast,360,2012-12-08 00:35:00
6:55 PM,29.5,21.6,72,29.98,10.0,North,6.9,-,N/A,,Overcast,350,2012-12-08 00:55:00
7:15 PM,29.3,21.2,72,29.99,10.0,North,6.9,-,N/A,,Overcast,350,2012-12-08 01:15:00
7:55 PM,28.6,21.0,73,29.99,10.0,North,4.6,-,N/A,,Overcast,10,2012-12-08 01:55:00
8:55 PM,28.2,21.2,75,29.98,10.0,North,6.9,-,N/A,,Overcast,10,2012-12-08 02:55:00
9:15 PM,28.4,21.2,74,29.99,10.0,North,4.6,-,N/A,,Overcast,360,2012-12-08 03:15:00
9:35 PM,28.4,21.4,75,29.99,10.0,North,5.8,-,N/A,,Overcast,360,2012-12-08 03:35:00
10:35 PM,28.4,21.2,74,29.99,10.0,NNW,3.5,-,N/A,,Overcast,340,2012-12-08 04:35:00
10:55 PM,28.0,21.2,76,29.99,10.0,North,4.6,-,N/A,,Overcast,360,2012-12-08 04:55:00
11:15 PM,27.9,21.2,76,29.99,10.0,North,4.6,-,N/A,,Overcast,360,2012-12-08 05:15:00
11:35 PM,27.9,21.2,76,29.99,10.0,North,5.8,-,N/A,,Overcast,360,2012-12-08 05:35:00
11:55 PM,27.5,21.0,77,29.99,10.0,NNE,4.6,-,N/A,,Overcast,20,2012-12-08 05:55:00